CW4114 Weather Reports


time (UTC)temp
F
wind
direction
speed
knots
gust
knots
rain 1hr
in
rain 24hr
in
rain mn
in
humidity
%
barometer
mb
20260509162404 60 272 8.7 15.6 0.00 0.00 0.00 62 995.0
20260509161906 60 255 7.0 15.6 0.00 0.00 0.00 62 995.2
20260509161403 60 262 4.3 15.6 0.00 0.00 0.00 62 995.2
20260509160925 60 282 6.1 11.3 0.00 0.00 0.00 63 995.2
20260509160447 60 240 5.2 12.2 0.00 0.00 0.00 64 995.1
20260509155903 60 275 6.1 12.2 0.00 0.00 0.00 64 995.1
20260509155402 60 219 3.5 10.4 0.00 0.00 0.00 65 995.1
20260509154903 59 231 3.5 10.4 0.00 0.00 0.00 65 995.1
20260509154402 60 231 5.2 10.4 0.00 0.00 0.00 65 995.1
20260509153859 60 210 5.2 13.0 0.00 0.00 0.00 65 995.1
20260509153358 60 224 6.1 13.0 0.00 0.00 0.00 64 995.1
20260509152358 60 207 3.5 13.0 0.00 0.00 0.00 63 995.0
20260509151857 60 216 9.6 13.0 0.00 0.00 0.00 64 995.1
20260509151356 60 233 5.2 13.9 0.00 0.00 0.00 64 995.1
20260509150859 60 238 7.0 13.9 0.00 0.00 0.00 65 995.1
20260509150355 60 237 3.5 10.4 0.00 0.00 0.00 65 995.0
20260509145856 59 228 3.5 12.2 0.00 0.00 0.00 64 995.1
20260509145403 59 247 7.0 13.0 0.00 0.00 0.00 64 995.1
20260509144852 60 244 5.2 15.6 0.00 0.00 0.00 63 995.2
20260509144656 60 213 7.8 15.6 0.00 0.00 0.00 63 995.1
20260509143934 60 258 7.0 13.0 0.00 0.00 0.00 64 995.0
20260509143353 60 213 6.1 13.0 0.00 0.00 0.00 64 994.9
20260509142853 60 200 7.0 13.0 0.00 0.00 0.00 64 994.8
20260509142349 59 241 7.8 14.8 0.00 0.00 0.00 65 994.9
20260509141848 59 234 7.0 14.8 0.00 0.00 0.00 66 995.1
20260509141346 58 236 7.8 16.5 0.00 0.00 0.00 65 995.3
20260509140847 59 279 7.8 18.2 0.00 0.00 0.00 65 995.2
20260509140346 59 236 10.4 18.2 0.00 0.00 0.00 64 994.8
20260509135846 59 185 7.0 13.0 0.00 0.00 0.00 65 994.7
20260509135400 59 255 6.1 13.0 0.00 0.00 0.00 66 994.9
20260509134845 58 244 7.0 13.0 0.00 0.00 0.00 67 995.0
20260509134407 57 158 5.2 12.2 0.00 0.00 0.00 66 995.0
20260509133845 56 223 6.1 11.3 0.00 0.00 0.00 66 995.1
20260509133343 56 183 5.2 13.9 0.00 0.00 0.00 65 995.1
20260509132843 56 233 7.8 13.9 0.00 0.00 0.00 64 995.3
20260509132354 56 197 6.1 13.0 0.00 0.00 0.00 63 995.3
20260509131842 56 188 7.0 16.5 0.00 0.00 0.00 62 995.3
20260509131341 56 217 9.6 16.5 0.00 0.00 0.00 62 995.4
20260509130843 55 252 6.1 15.6 0.00 0.00 0.00 61 995.2
20260509130342 55 219 5.2 14.8 0.00 0.00 0.00 60 995.4
20260509125842 54 204 7.8 14.8 0.00 0.00 0.00 59 995.4
20260509125341 54 227 7.0 13.0 0.00 0.00 0.00 59 995.5
20260509124841 54 224 6.1 13.0 0.00 0.00 0.00 58 995.6
20260509124604 54 220 6.1 13.9 0.00 0.00 0.00 58 995.5
20260509123838 53 204 7.8 13.9 0.00 0.00 0.00 58 995.5
20260509123335 53 216 7.0 14.8 0.00 0.00 0.00 57 995.6
20260509122833 53 241 4.3 14.8 0.00 0.00 0.00 57 995.8
20260509122600 53 207 8.7 14.8 0.00 0.00 0.00 56 995.9
20260509121833 53 231 6.1 13.0 0.00 0.00 0.00 56 995.9
20260509121332 53 214 5.2 12.2 0.00 0.00 0.00 56 996.1
20260509121057 53 175 7.8 13.0 0.00 0.00 0.00 56 996.2
20260509120331 52 228 7.8 13.0 0.00 0.00 0.00 55 996.2
20260509120056 52 214 6.1 13.0 0.00 0.00 0.00 55 996.0
20260509115327 52 219 6.1 13.0 0.00 0.00 0.00 54 996.1
20260509114824 52 213 7.0 12.2 0.00 0.00 0.00 54 996.1
20260509114549 52 154 5.2 15.6 0.00 0.00 0.00 53 996.5
20260509113824 52 204 6.1 15.6 0.00 0.00 0.00 53 996.7
20260509113324 51 193 6.1 13.9 0.00 0.00 0.00 53 996.7
20260509112825 51 190 7.8 13.9 0.00 0.00 0.00 53 996.6
20260509112551 51 220 6.1 13.9 0.00 0.00 0.00 53 996.7
20260509111824 51 202 7.8 13.0 0.00 0.00 0.00 52 996.7
20260509111326 51 213 7.0 12.2 0.00 0.00 0.00 52 996.9
20260509110821 51 179 6.1 13.9 0.00 0.00 0.00 52 996.8
20260509110321 51 186 5.2 13.9 0.00 0.00 0.00 53 996.9
20260509105821 50 197 7.0 13.0 0.00 0.00 0.00 53 997.0
20260509105321 50 204 5.2 13.0 0.00 0.00 0.00 53 997.1
20260509104821 50 202 5.2 12.2 0.00 0.00 0.00 54 997.2
20260509104546 49 203 7.0 12.2 0.00 0.00 0.00 54 997.2
20260509103820 49 220 4.3 11.3 0.00 0.00 0.00 54 997.2
20260509103321 49 220 4.3 11.3 0.00 0.00 0.00 53 997.2
20260509102820 49 209 7.0 11.3 0.00 0.00 0.00 53 997.4
20260509102319 49 210 6.1 11.3 0.00 0.00 0.00 53 997.5
20260509101819 49 200 6.1 11.3 0.00 0.00 0.00 53 997.6
20260509101545 49 216 6.1 12.2 0.00 0.00 0.00 54 997.6
20260509100817 49 212 7.0 12.2 0.00 0.00 0.00 53 997.6
20260509100539 49 221 5.2 13.9 0.00 0.00 0.00 53 997.7
20260509095815 49 213 7.0 13.9 0.00 0.00 0.00 53 997.7
20260509095315 49 216 7.0 13.9 0.00 0.00 0.00 54 997.8
20260509094815 49 203 7.0 12.2 0.00 0.00 0.00 54 997.8
20260509094316 49 217 6.1 12.2 0.00 0.00 0.00 54 997.8
20260509093811 49 236 7.0 12.2 0.00 0.00 0.00 54 998.1
20260509093311 49 230 6.1 11.3 0.00 0.00 0.00 53 998.1
20260509092811 49 219 7.8 13.0 0.00 0.00 0.00 53 998.2
20260509092313 49 230 6.1 13.0 0.00 0.00 0.00 53 998.3
20260509091810 49 227 5.2 10.4 0.00 0.00 0.00 53 998.2
20260509090810 50 203 6.1 11.3 0.00 0.00 0.00 52 998.3
20260509090535 50 159 5.2 12.2 0.00 0.00 0.00 52 998.3
20260509090043 50 212 6.1 12.2 0.00 0.00 0.00 52 998.4
20260509085310 50 210 6.1 11.3 0.00 0.00 0.00 53 998.4
20260509084810 50 200 6.1 8.7 0.00 0.00 0.00 53 998.5
20260509084310 50 212 4.3 8.7 0.00 0.00 0.00 53 998.7
20260509083809 50 236 5.2 9.6 0.00 0.00 0.00 53 998.8
20260509083310 50 204 4.3 9.6 0.00 0.00 0.00 53 998.8
20260509082812 49 228 4.3 9.6 0.00 0.00 0.00 54 999.0
20260509082309 50 224 4.3 10.4 0.00 0.00 0.00 54 999.1
20260509082050 50 200 4.3 12.2 0.00 0.00 0.00 54 999.1
20260509080808 50 213 3.5 7.8 0.00 0.00 0.00 54 999.2
20260509080309 50 238 2.6 9.6 0.00 0.00 0.00 55 999.3
20260509075809 49 199 5.2 9.6 0.00 0.00 0.00 55 999.4
20260509075308 49 175 3.5 10.4 0.00 0.00 0.00 56 999.4
20260509074822 49 207 5.2 10.4 0.00 0.00 0.00 57 999.6
20260509074307 49 212 5.2 8.7 0.00 0.00 0.00 58 999.6
20260509074038 48 206 3.5 7.8 0.00 0.00 0.00 59 999.7
20260509073308 48 213 4.3 7.8 0.00 0.00 0.00 59 999.7
20260509072807 48 207 3.5 8.7 0.00 0.00 0.00 60 999.8
20260509072309 48 204 5.2 8.7 0.00 0.00 0.00 61 1000.1
20260509071818 48 214 2.6 8.7 0.00 0.00 0.00 61 1000.2
20260509071308 47 240 3.5 8.7 0.00 0.00 0.00 61 1000.2
20260509070807 47 258 1.7 5.2 0.00 0.00 0.00 61 1000.3
20260509070307 47 200 4.3 7.8 0.00 0.00 0.00 63 1000.4
20260509065807 47 230 3.5 7.8 0.00 0.00 0.00 64 1000.3
20260509065306 46 189 2.6 7.8 0.00 0.00 0.00 67 1000.4
20260509064815 46 196 2.6 5.2 0.00 0.00 0.00 68 1000.4
20260509064306 46 158 1.7 3.5 0.00 0.00 0.00 69 1000.4
20260509063807 46 138 0.9 3.5 0.00 0.00 0.00 69 1000.6
20260509063307 46 161 0.9 4.3 0.00 0.00 0.00 70 1000.8
20260509062807 46 151 1.7 4.3 0.00 0.00 0.00 70 1000.9
20260509062306 46 140 1.7 3.5 0.00 0.00 0.00 69 1001.0
20260509061805 46 126 1.7 3.5 0.00 0.00 0.00 70 1001.3
20260509061307 46 145 1.7 3.5 0.00 0.00 0.00 70 1001.4
20260509061037 46 178 1.7 3.5 0.00 0.00 0.00 70 1001.5
20260509060305 46 185 1.7 3.5 0.00 0.00 0.00 70 1001.4
20260509055805 45 155 1.7 3.5 0.00 0.00 0.00 70 1001.5
20260509055307 45 162 1.7 2.6 0.00 0.00 0.00 70 1001.6
20260509054805 46 154 0.9 2.6 0.00 0.00 0.00 71 1001.7
20260509054306 46 162 1.7 2.6 0.00 0.00 0.00 70 1001.8
20260509054032 46 169 0.9 2.6 0.00 0.00 0.00 70 1001.8
20260509053304 46 166 0.9 2.6 0.00 0.00 0.00 69 1001.9
20260509052804 46 137 0.0 1.7 0.00 0.00 0.00 69 1001.9
20260509052307 47 135 0.9 1.7 0.00 0.00 0.00 68 1002.0
20260509051802 47 168 0.9 1.7 0.00 0.00 0.00 65 1002.1
20260509051302 47 193 0.9 1.7 0.00 0.00 0.00 64 1002.1
20260509050802 47 202 0.0 2.6 0.00 0.00 0.00 64 1002.1
20260509050302 47 207 0.0 4.3 0.00 0.00 0.00 63 1002.1
20260509045802 47 202 1.7 4.3 0.00 0.00 0.00 63 1002.2
20260509045306 47 195 0.9 5.2 0.00 0.00 0.00 63 1002.2
20260509044802 47 154 1.7 5.2 0.00 0.00 0.00 63 1002.1
20260509044530 47 185 1.7 5.2 0.00 0.00 0.00 62 1002.2
20260509043805 47 188 1.7 6.1 0.00 0.00 0.00 63 1002.3
20260509043535 47 162 3.5 6.1 0.00 0.00 0.00 62 1002.3
20260509042804 47 179 3.5 9.6 0.00 0.00 0.00 62 1002.3
20260509042301 47 185 5.2 9.6 0.00 0.00 0.00 61 1002.4
20260509041803 47 144 3.5 8.7 0.00 0.00 0.00 61 1002.5
20260509041542 47 166 4.3 8.7 0.00 0.00 0.00 61 1002.6
20260509040804 47 176 3.5 8.7 0.00 0.00 0.00 61 1002.6
20260509040303 47 202 3.5 9.6 0.00 0.00 0.00 61 1002.7
20260509035802 47 196 4.3 9.6 0.00 0.00 0.00 62 1002.7
20260509035533 47 149 4.3 8.7 0.00 0.00 0.00 62 1002.8
20260509035039 47 196 3.5 6.1 0.00 0.00 0.00 62 1002.9
20260509034522 47 189 2.6 6.1 0.00 0.00 0.00 62 1003.0
20260509034028 47 175 3.5 6.1 0.00 0.00 0.00 62 1003.0
20260509033252 47 182 3.5 5.2 0.00 0.00 0.00 63 1003.1
20260509032753 47 161 3.5 7.8 0.00 0.00 0.00 62 1003.2
20260509032247 47 213 2.6 7.8 0.00 0.00 0.00 62 1003.2
20260509032021 47 192 2.6 7.8 0.00 0.00 0.00 63 1003.2
20260509031247 47 151 2.6 6.1 0.00 0.00 0.00 64 1003.3
20260509031022 47 165 3.5 6.1 0.00 0.00 0.00 65 1003.4
20260509030246 47 158 3.5 6.1 0.00 0.00 0.00 65 1003.5
20260509025746 47 172 3.5 6.1 0.00 0.00 0.00 65 1003.7
20260509025246 47 162 4.3 6.1 0.00 0.00 0.00 65 1003.8
20260509024745 46 202 2.6 7.8 0.00 0.00 0.00 65 1003.7
20260509024244 46 199 3.5 7.8 0.00 0.00 0.00 66 1003.7
20260509023744 46 171 1.7 5.2 0.00 0.00 0.00 67 1003.8
20260509023241 46 192 2.6 6.1 0.00 0.00 0.00 68 1003.8
20260509022740 45 192 4.3 6.1 0.00 0.00 0.00 68 1003.9
20260509021739 45 166 3.5 5.2 0.00 0.00 0.00 70 1003.9
20260509021239 45 200 1.7 4.3 0.00 0.00 0.00 69 1003.9
20260509021008 45 182 1.7 4.3 0.00 0.00 0.00 69 1003.9
20260509020241 45 186 1.7 3.5 0.00 0.00 0.00 69 1003.9
20260509015725 45 179 1.7 3.5 0.00 0.00 0.00 68 1003.9
20260509015224 45 162 1.7 3.5 0.00 0.00 0.00 67 1003.9
20260509014719 45 151 1.7 3.5 0.00 0.00 0.00 67 1003.8
20260509014219 45 166 1.7 4.3 0.00 0.00 0.00 67 1003.9
20260509013718 45 155 2.6 4.3 0.00 0.00 0.00 67 1003.9
20260509013215 45 168 2.6 3.5 0.00 0.00 0.00 67 1003.9
20260509012714 45 161 1.7 3.5 0.00 0.00 0.00 66 1003.9
20260509012440 45 155 1.7 3.5 0.00 0.00 0.00 66 1003.8
20260509011711 45 188 0.9 3.5 0.00 0.00 0.00 66 1003.8
20260509011212 46 157 1.7 3.5 0.00 0.00 0.00 66 1003.8
20260509010710 46 158 1.7 2.6 0.00 0.00 0.00 65 1003.7
20260509010214 46 151 1.7 4.3 0.00 0.00 0.00 65 1003.7
20260509005757 46 144 1.7 3.5 0.00 0.00 0.00 64 1003.7
20260509005031 47 137 0.9 3.5 0.00 0.00 0.00 64 1003.5
20260509004532 47 144 1.7 4.3 0.00 0.00 0.00 64 1003.7
20260509004031 47 134 0.9 4.3 0.00 0.00 0.00 65 1003.7
20260509003530 47 141 1.7 3.5 0.00 0.00 0.00 66 1003.5
20260509003027 47 141 0.9 4.3 0.00 0.00 0.00 68 1003.5
20260509002526 47 121 0.9 4.3 0.00 0.00 0.00 71 1003.5
20260509002027 46 127 1.7 3.5 0.00 0.00 0.00 75 1003.5
20260509001527 45 131 1.7 4.3 0.00 0.00 0.00 81 1003.5
20260509001026 44 137 2.6 4.3 0.00 0.00 0.00 86 1003.5
20260509000526 44 154 1.7 3.5 0.00 0.00 0.00 87 1003.7
20260509000020 44 96 0.0 2.6 0.00 0.00 0.00 87 1003.7
20260508235736 44 85 1.7 2.6 0.00 0.00 0.00 87 1003.7
20260508235008 43 85 0.9 2.6 0.00 0.00 0.00 87 1003.7
20260508234231 43 99 1.7 2.6 0.00 0.00 0.00 86 1003.9
20260508233503 43 75 0.9 2.6 0.00 0.00 0.00 86 1004.0
20260508233004 43 86 0.9 3.5 0.00 0.00 0.00 85 1003.9
20260508232503 43 87 1.7 3.5 0.00 0.00 0.00 85 1004.0
20260508232004 43 72 1.7 3.5 0.00 0.00 0.00 85 1004.0
20260508231504 44 80 1.7 5.2 0.00 0.00 0.00 84 1004.0
20260508231002 44 102 1.7 5.2 0.00 0.00 0.00 84 1004.0
20260508230504 44 110 2.6 6.1 0.00 0.00 0.00 83 1004.0
20260508230004 44 95 3.5 6.1 0.00 0.00 0.00 82 1004.0
20260508225503 44 86 3.5 5.2 0.00 0.00 0.00 83 1004.1
20260508225004 45 62 3.5 5.2 0.00 0.00 0.00 82 1004.1
20260508224503 45 75 3.5 5.2 0.00 0.00 0.00 81 1004.2
20260508224006 45 104 3.5 6.1 0.00 0.00 0.00 81 1004.2
20260508223503 45 76 4.3 6.1 0.00 0.00 0.00 81 1004.2
20260508222958 45 89 1.7 7.8 0.00 0.00 0.00 81 1004.2
20260508222724 45 86 3.5 8.7 0.00 0.00 0.00 80 1004.2
20260508221958 45 126 3.5 8.7 0.00 0.00 0.00 79 1004.2
20260508221454 45 78 4.3 8.7 0.00 0.00 0.00 78 1004.2
20260508220954 46 110 2.6 6.1 0.00 0.00 0.00 78 1004.4
20260508220454 46 82 3.5 6.1 0.00 0.00 0.00 77 1004.3
20260508215955 47 79 5.2 6.1 0.00 0.00 0.00 77 1004.3
20260508215454 47 83 3.5 7.8 0.00 0.00 0.00 76 1004.4
20260508214954 47 92 5.2 7.8 0.00 0.00 0.00 78 1004.4
20260508214451 47 86 5.2 7.8 0.00 0.00 0.00 77 1004.4
20260508213951 47 75 4.3 9.6 0.00 0.00 0.00 78 1004.5
20260508213718 46 66 3.5 11.3 0.00 0.00 0.00 77 1004.4
20260508213220 46 103 5.2 11.3 0.00 0.00 0.00 76 1004.4
20260508212450 46 93 6.1 9.6 0.00 0.00 0.00 75 1004.4
20260508211950 46 96 3.5 8.7 0.00 0.00 0.00 75 1004.5
20260508211453 47 110 5.2 8.7 0.00 0.00 0.00 75 1004.5
20260508210950 47 54 4.3 7.8 0.00 0.00 0.00 75 1004.5
20260508210717 47 71 4.3 7.8 0.00 0.00 0.00 76 1004.6
20260508205950 46 75 3.5 7.8 0.00 0.00 0.00 75 1004.6
20260508205449 46 80 4.3 8.7 0.00 0.00 0.00 75 1004.6
20260508204950 46 75 4.3 9.6 0.00 0.00 0.00 74 1004.7
20260508204450 47 59 5.2 9.6 0.00 0.00 0.00 73 1004.8
20260508203950 47 72 2.6 7.8 0.00 0.00 0.00 75 1004.7
20260508202948 47 76 5.2 9.6 0.00 0.00 0.00 72 1004.6
20260508202448 48 92 4.3 9.6 0.00 0.00 0.00 72 1004.6
20260508201949 48 79 5.2 9.6 0.00 0.00 0.00 73 1004.5
20260508201451 48 71 5.2 9.6 0.00 0.00 0.00 73 1004.5
20260508200949 48 45 5.2 9.6 0.00 0.00 0.00 76 1004.7
20260508200450 48 61 4.3 9.6 0.00 0.00 0.00 73 1004.6
20260508195950 48 93 5.2 10.4 0.00 0.00 0.00 72 1004.7
20260508195448 48 93 3.5 11.3 0.00 0.00 0.00 71 1004.9
20260508194948 48 102 7.8 11.3 0.00 0.00 0.00 70 1004.7
20260508194447 48 103 6.1 12.2 0.00 0.00 0.00 71 1004.8
20260508193948 48 75 7.0 12.2 0.00 0.00 0.00 71 1005.0
20260508193447 48 100 7.0 10.4 0.00 0.00 0.00 70 1004.9
20260508192947 47 87 5.2 11.3 0.00 0.00 0.00 72 1005.1
20260508192447 47 117 3.5 11.3 0.00 0.00 0.00 71 1005.0
20260508191946 48 92 6.1 9.6 0.00 0.00 0.00 72 1005.1
20260508191446 47 102 4.3 9.6 0.00 0.00 0.00 73 1005.2
20260508190947 47 65 5.2 9.6 0.00 0.00 0.00 74 1005.3
20260508190447 47 55 4.3 10.4 0.00 0.00 0.00 74 1005.3
20260508185947 47 145 5.2 10.4 0.00 0.00 0.00 73 1005.3
20260508185447 47 103 5.2 9.6 0.00 0.00 0.00 73 1005.3
20260508184946 47 92 3.5 9.6 0.00 0.00 0.00 73 1005.5
20260508184445 47 92 5.2 9.6 0.00 0.00 0.00 74 1005.4
20260508183946 47 75 4.3 9.6 0.00 0.00 0.00 74 1005.5
20260508183458 47 78 5.2 9.6 0.00 0.00 0.00 73 1005.6
20260508182945 47 87 6.1 9.6 0.00 0.00 0.00 75 1005.7
20260508182445 47 89 5.2 10.4 0.00 0.00 0.00 76 1005.7
20260508181945 47 114 5.2 10.4 0.00 0.00 0.00 75 1005.7
20260508181444 46 69 5.2 10.4 0.00 0.00 0.00 75 1005.8
20260508180944 46 75 6.1 10.4 0.00 0.00 0.00 75 1005.8
20260508180447 46 86 5.2 10.4 0.00 0.00 0.00 74 1005.9
20260508175944 46 116 5.2 11.3 0.00 0.00 0.00 74 1005.9
20260508175444 46 107 5.2 12.2 0.00 0.00 0.00 74 1006.1
20260508174945 46 107 7.0 12.2 0.00 0.00 0.00 74 1006.1
20260508174444 46 92 4.3 9.6 0.00 0.00 0.00 75 1006.2
20260508173945 45 89 4.3 10.4 0.00 0.00 0.00 76 1006.3
20260508173443 45 85 5.2 10.4 0.00 0.00 0.00 73 1006.4
20260508172943 46 87 7.0 11.3 0.00 0.00 0.00 72 1006.4
20260508172443 46 99 6.1 11.3 0.00 0.00 0.00 73 1006.4
20260508171943 46 86 5.2 10.4 0.00 0.00 0.00 74 1006.6
20260508171443 45 114 6.1 9.6 0.00 0.00 0.00 73 1006.5
20260508170943 45 79 5.2 9.6 0.00 0.00 0.00 76 1006.5
20260508170442 44 66 5.2 9.6 0.00 0.00 0.00 75 1006.5
20260508170002 44 110 6.1 9.6 0.00 0.00 0.00 74 1006.6
20260508165457 45 123 5.2 9.6 0.00 0.00 0.00 75 1006.6
20260508165207 44 68 2.6 7.8 0.00 0.00 0.00 76 1006.7
20260508164441 44 106 4.3 7.8 0.00 0.00 0.00 76 1006.7
20260508163940 44 96 4.3 7.8 0.00 0.00 0.00 76 1006.8
20260508163437 44 99 1.7 8.7 0.00 0.00 0.00 75 1006.7
20260508162938 44 100 4.3 8.7 0.00 0.00 0.00 74 1006.7